Location: Chervonnoye
(48.6000°N, 34.4000°E)
Time: 14:17:36
(UTC+00:00)

IRS-1C Rocket - Pass Details

Date: 23 November 2020
Orbit: 800 x 806 km, 99.0° (Epoch: 26 January)

Event Time Altitude Azimuth Distance (km) Brightness Sun altitude
Rises 16:03:04 0° 170° (S) 3,307 7.3 -20.8°
Reaches altitude 10° 16:05:24 10° 173° (S) 2,381 6.5 -21.2°
Maximum altitude 16:10:39 69° 257° (WSW) 863 4.4 -22.0°
Drops below altitude 10° 16:15:56 10° 341° (NNW) 2,399 6.7 -22.9°
Sets 16:18:18 0° 344° (NNW) 3,335 7.4 -23.3°
